QPF
0.00 0.00 0.00 0.00 0.00 0.00 0.00 0.00 0.00 0.00 0.00 0.00 0.00 0.00 0.00 0.00 0.00 0.00 0.00 0.00 0.00 0.00 0.00 0.00 0.00 0.00 0.00 0.00 0.00 0.00 0.00 0.00 0.00 0.00 0.00 0.00 0.00 0.00 0.00 0.00 0.00 0.00 0.00 0.00 0.00 0.00 0.00 0.00 0.00
0.00 0.00 0.00 0.00 0.00 0.00 0.00 0.00 0.00 0.00 0.00 0.00 0.00 0.00 0.00 0.00 0.00 0.00 0.00 0.00 0.00 0.00 0.00 0.00 0.00 0.00 0.00 0.00 0.00 0.00 0.00 0.00 0.00 0.00 0.00 0.00 0.00 0.00 0.00 0.00 0.00 0.00 0.00 0.00 0.00 0.00 0.00 0.00 0.00
0.00 0.00 0.00 0.00 0.00 0.00 0.00 0.00 0.00 0.00 0.00 0.00 0.00 0.00 0.00 0.00 0.00 0.00 0.00 0.00 0.00 0.00 0.00 0.00 0.00 0.00 0.00 0.00 0.00 0.00 0.00 0.00 0.00 0.00 0.00 0.00 0.00 0.00 0.00 0.00 0.00 0.00 0.00 0.00 0.00 0.00 0.00 0.00 0.01
0.00 0.00 0.00 0.00 0.00 0.00 0.00 0.00 0.00 0.02 0.00 0.00 0.00 0.00 0.00 0.00 0.00 0.00 0.00 0.00 0.00 0.00 0.00 0.00 0.00 0.00 0.00 0.00 0.00 0.00 0.00 0.00 0.00 0.00 0.00 0.00 0.00 0.00 0.00 0.00 0.00 0.00 0.00 0.00 0.00 0.01 0.02 0.01 0.01
0.00 0.00 0.00 0.00 0.00 0.00 0.00 0.00 0.00 0.00 0.00 0.00 0.00 0.00 0.00 0.00 0.00 0.00 0.00 0.00 0.00 0.00 0.00 0.00 0.00 0.00 0.00 0.00 0.00 0.00 0.00 0.00 0.00 0.00 0.00 0.00 0.00 0.00 0.00 0.00 0.00 0.00 0.00 0.01 0.01 0.02 0.03 0.02 0.01
0.00 0.00 0.00 0.00 0.00 0.00 0.00 0.00 0.00 0.00 0.00 0.00 0.00 0.00 0.00 0.00 0.00 0.00 0.00 0.00 0.00 0.00 0.00 0.00 0.00 0.00 0.00 0.00 0.00 0.00 0.00 0.00 0.00 0.00 0.00 0.00 0.00 0.00 0.00 0.00 0.00 0.00 0.00 0.00 0.00 0.00 0.00 0.00 0.01
0.00 0.00 0.00 0.00 0.00 0.00 0.00 0.00 0.00 0.00 0.00 0.00 0.00 0.00 0.00 0.00 0.00 0.00 0.00 0.00 0.00 0.00 0.00 0.00 0.00 0.00 0.00 0.00 0.00 0.00 0.00 0.00 0.00 0.00 0.00 0.00 0.00 0.00 0.00 0.00 0.00 0.00 0.00 0.00 0.00 0.00 0.00 0.00 0.00
0.00 0.00 0.00 0.00 0.00 0.00 0.00 0.00 0.00 0.00 0.00 0.00 0.00 0.00 0.00 0.00 0.00 0.00 0.00 0.00 0.00 0.00 0.00 0.00 0.00 0.00 0.00 0.00 0.00 0.00 0.00 0.00 0.00 0.00 0.00 0.00 0.00 0.00 0.00 0.00 0.00 0.00 0.00 0.00 0.00 0.00 0.00 0.00 0.00
0.00 0.00 0.00 0.00 0.00 0.00 0.00 0.00 0.00 0.00 0.00 0.00 0.00 0.00 0.00 0.00 0.00 0.00 0.00 0.00 0.00 0.00 0.00 0.00 0.00 0.00 0.00 0.00 0.00 0.00 0.00 0.00 0.00 0.00 0.00 0.00 0.00 0.00 0.00 0.00 0.00 0.00 0.00 0.00 0.00 0.00 0.00 0.00 0.00
0.00 0.00 0.00 0.00 0.00 0.00 0.00 0.00 0.00 0.00 0.00 0.00 0.00 0.00 0.00 0.00 0.00 0.00 0.00 0.00 0.00 0.00 0.00 0.00 0.00 0.00 0.00 0.00 0.00 0.00 0.00 0.00 0.00 0.00 0.00 0.00 0.00 0.00 0.00 0.00 0.00 0.00 0.00 0.00 0.00 0.00 0.00 0.00 0.00
0.00 0.00 0.00 0.00 0.00 0.00 0.00 0.00 0.00 0.00 0.00 0.00 0.00 0.00 0.00 0.00 0.00 0.00 0.00 0.00 0.00 0.00 0.00 0.00 0.00 0.00 0.00 0.00 0.00 0.00 0.00 0.00 0.00 0.00 0.00 0.00 0.00 0.00 0.00 0.00 0.00 0.00 0.00 0.00 0.00 0.00 0.00 0.00 0.00
0.00 0.00 0.00 0.00 0.00 0.00 0.00 0.00 0.00 0.00 0.00 0.00 0.00 0.00 0.00 0.00 0.00 0.00 0.00 0.00 0.00 0.00 0.00 0.00 0.00 0.00 0.00 0.00 0.00 0.00 0.00 0.00 0.00 0.00 0.00 0.00 0.00 0.00 0.00 0.00 0.00 0.00 0.00 0.00 0.00 0.00 0.00 0.00 0.00
0.00 0.00 0.00 0.00 0.00 0.00 0.00 0.00 0.00 0.00 0.00 0.00 0.00 0.00 0.00 0.00 0.00 0.00 0.00 0.00 0.00 0.00 0.00 0.00 0.00 0.00 0.00 0.00 0.00 0.00 0.00 0.00 0.00 0.00 0.00 0.00 0.00 0.00 0.00 0.00 0.00 0.00 0.00 0.00 0.00 0.00 0.00 0.00 0.00
0.00 0.00 0.00 0.00 0.00 0.00 0.00 0.00 0.00 0.00 0.00 0.00 0.00 0.00 0.00 0.00 0.00 0.00 0.00 0.00 0.00 0.00 0.00 0.00 0.00 0.00 0.00 0.00 0.00 0.00 0.00 0.00 0.00 0.00 0.00 0.00 0.00 0.00 0.00 0.00 0.00 0.00 0.00 0.00 0.00 0.00 0.00 0.00 0.00
0.00 0.00 0.00 0.00 0.00 0.00 0.00 0.00 0.00 0.00 0.00 0.00 0.00 0.00 0.00 0.00 0.00 0.00 0.00 0.00 0.00 0.00 0.00 0.00 0.00 0.00 0.00 0.00 0.00 0.00 0.00 0.00 0.00 0.00 0.00 0.00 0.00 0.00 0.00 0.00 0.00 0.00 0.00 0.00 0.00 0.00 0.00 0.00 0.00
0.00 0.00 0.00 0.00 0.00 0.00 0.00 0.00 0.00 0.00 0.00 0.00 0.00 0.00 0.00 0.00 0.00 0.00 0.00 0.00 0.00 0.00 0.00 0.00 0.00 0.00 0.00 0.00 0.00 0.00 0.00 0.00 0.00 0.00 0.00 0.00 0.00 0.00 0.00 0.00 0.00 0.00 0.00 0.00 0.00 0.00 0.00 0.00 0.00
0.00 0.00 0.00 0.00 0.00 0.00 0.00 0.00 0.00 0.00 0.00 0.00 0.00 0.00 0.00 0.00 0.00 0.00 0.00 0.00 0.00 0.00 0.00 0.00 0.00 0.00 0.00 0.00 0.00 0.00 0.00 0.00 0.00 0.00 0.00 0.00 0.00 0.00 0.00 0.00 0.00 0.00 0.00 0.00 0.00 0.00 0.00 0.01 0.01
0.00 0.00 0.00 0.00 0.00 0.00 0.00 0.00 0.00 0.00 0.00 0.00 0.00 0.00 0.00 0.00 0.00 0.00 0.00 0.00 0.00 0.00 0.00 0.00 0.00 0.00 0.00 0.00 0.00 0.00 0.00 0.00 0.00 0.00 0.01 0.00 0.00 0.00 0.00 0.00 0.00 0.00 0.01 0.00 0.00 0.00 0.02 0.03 0.05
0.00 0.00 0.00 0.00 0.00 0.00 0.00 0.00 0.00 0.00 0.00 0.00 0.00 0.00 0.00 0.00 0.00 0.00 0.00 0.00 0.00 0.00 0.00 0.00 0.00 0.00 0.00 0.00 0.00 0.00 0.00 0.00 0.00 0.01 0.00 0.00 0.00 0.00 0.00 0.00 0.00 0.00 0.01 0.01 0.01 0.01 0.08 0.12 0.11
0.00 0.00 0.00 0.00 0.00 0.00 0.00 0.00 0.00 0.00 0.00 0.00 0.00 0.00 0.00 0.00 0.00 0.00 0.00 0.00 0.00 0.00 0.00 0.00 0.00 0.00 0.00 0.00 0.00 0.00 0.00 0.00 0.00 0.00 0.02 0.00 0.00 0.00 0.00 0.00 0.00 0.00 0.00 0.02 0.06 0.03 0.03 0.02 0.03
0.00 0.00 0.00 0.00 0.00 0.00 0.00 0.00 0.00 0.00 0.00 0.00 0.00 0.00 0.00 0.00 0.00 0.00 0.00 0.00 0.00 0.00 0.00 0.00 0.00 0.00 0.00 0.00 0.00 0.00 0.00 0.00 0.00 0.00 0.00 0.00 0.00 0.00 0.00 0.00 0.00 0.00 0.01 0.03 0.00 0.00 0.01 0.12 0.03
0.00 0.00 0.00 0.00 0.00 0.00 0.00 0.00 0.00 0.00 0.00 0.00 0.00 0.00 0.00 0.00 0.00 0.00 0.00 0.00 0.00 0.00 0.00 0.00 0.00 0.00 0.00 0.00 0.00 0.00 0.00 0.00 0.00 0.00 0.00 0.00 0.00 0.00 0.00 0.00 0.00 0.01 0.00 0.00 0.00 0.03 0.05 0.03 0.05
0.00 0.00 0.00 0.00 0.00 0.00 0.00 0.00 0.00 0.00 0.00 0.00 0.00 0.00 0.00 0.00 0.00 0.00 0.00 0.00 0.00 0.00 0.00 0.00 0.00 0.00 0.00 0.00 0.00 0.00 0.00 0.00 0.00 0.00 0.00 0.00 0.00 0.00 0.00 0.00 0.00 0.00 0.00 0.00 0.00 0.00 0.01 0.00 0.02
0.00 0.00 0.00 0.00 0.00 0.00 0.00 0.00 0.00 0.00 0.00 0.00 0.00 0.00 0.00 0.00 0.00 0.00 0.00 0.00 0.00 0.00 0.00 0.00 0.00 0.00 0.00 0.00 0.00 0.00 0.00 0.00 0.00 0.00 0.00 0.00 0.00 0.00 0.00 0.00 0.00 0.00 0.00 0.00 0.00 0.00 0.00 0.02 0.00
0.00 0.00 0.00 0.00 0.00 0.00 0.00 0.00 0.00 0.00 0.00 0.00 0.00 0.00 0.00 0.00 0.00 0.00 0.00 0.00 0.00 0.00 0.00 0.00 0.00 0.00 0.00 0.00 0.00 0.00 0.00 0.00 0.00 0.00 0.00 0.00 0.00 0.00 0.00 0.00 0.00 0.00 0.00 0.00 0.00 0.00 0.00 0.04 0.05
0.00 0.00 0.00 0.00 0.00 0.00 0.00 0.00 0.00 0.00 0.00 0.00 0.00 0.00 0.00 0.00 0.00 0.00 0.00 0.00 0.00 0.00 0.00 0.00 0.00 0.00 0.00 0.00 0.00 0.00 0.00 0.00 0.00 0.00 0.00 0.00 0.00 0.00 0.00 0.00 0.00 0.00 0.00 0.00 0.00 0.02 0.01 0.02 0.07
0.00 0.00 0.00 0.00 0.00 0.00 0.00 0.00 0.00 0.00 0.00 0.00 0.00 0.00 0.00 0.00 0.00 0.00 0.00 0.00 0.00 0.00 0.00 0.00 0.00 0.00 0.00 0.00 0.00 0.00 0.00 0.00 0.00 0.00 0.00 0.00 0.00 0.00 0.00 0.00 0.00 0.00 0.00 0.00 0.00 0.02 0.02 0.00 0.10
0.00 0.00 0.00 0.00 0.00 0.00 0.00 0.00 0.00 0.00 0.00 0.00 0.00 0.00 0.00 0.00 0.00 0.00 0.00 0.00 0.00 0.00 0.00 0.00 0.00 0.00 0.00 0.00 0.00 0.00 0.00 0.00 0.00 0.00 0.00 0.00 0.00 0.00 0.00 0.00 0.00 0.00 0.00 0.01 0.03 0.02 0.04 0.01 0.02
0.00 0.00 0.00 0.00 0.00 0.00 0.00 0.00 0.00 0.00 0.00 0.00 0.00 0.00 0.00 0.00 0.00 0.00 0.00 0.00 0.00 0.00 0.00 0.00 0.00 0.00 0.00 0.00 0.00 0.00 0.00 0.00 0.00 0.00 0.00 0.00 0.00 0.00 0.00 0.00 0.00 0.00 0.00 0.08 0.10 0.10 0.07 0.07 0.02
0.00 0.00 0.00 0.00 0.00 0.00 0.00 0.00 0.00 0.00 0.00 0.00 0.00 0.00 0.00 0.00 0.00 0.00 0.00 0.00 0.00 0.00 0.00 0.00 0.00 0.00 0.00 0.00 0.00 0.00 0.00 0.00 0.00 0.00 0.00 0.00 0.00 0.00 0.00 0.00 0.00 0.00 0.03 0.05 0.07 0.09 0.06 0.05 0.16
MSLP
1011.08 1011.46 1011.48 1011.33 1011.74 1010.63 1009.28 1006.64 1005.67 1004.06 1003.07 1002.11 1001.26 1001.39 1002.01 1002.39 1003.24 1004.98 1004.71 1004.80 1005.49 1006.61 1007.42 1007.99 1008.38 1008.88 1009.25 1009.78 1010.25 1010.74 1011.21 1011.48 1011.88 1012.36 1012.71 1013.00 1013.32 1013.56 1013.90 1014.15 1014.36 1014.55 1014.60 1014.49 1014.66 1014.78 1014.87 1014.78 1014.71
1011.01 1011.17 1011.29 1011.00 1010.87 1010.09 1008.37 1005.72 1005.67 1004.21 1003.35 1001.83 1001.30 1001.50 1002.08 1003.09 1002.95 1004.16 1004.75 1004.94 1005.29 1006.53 1007.45 1007.99 1008.48 1009.01 1009.36 1009.66 1010.16 1010.68 1011.10 1011.45 1011.89 1012.26 1012.57 1012.88 1013.22 1013.46 1013.73 1014.05 1014.24 1014.41 1014.55 1014.51 1014.53 1014.64 1014.69 1014.67 1014.67
1011.30 1010.99 1011.25 1010.59 1009.78 1008.73 1007.13 1005.08 1004.65 1003.47 1003.75 1003.37 1002.95 1001.54 1001.79 1002.62 1003.03 1003.59 1003.94 1005.14 1006.04 1007.18 1008.06 1008.62 1009.04 1009.33 1009.67 1009.73 1010.11 1010.59 1011.02 1011.41 1011.81 1012.11 1012.48 1012.89 1013.16 1013.34 1013.60 1013.94 1014.06 1014.23 1014.34 1014.40 1014.42 1014.48 1014.47 1014.46 1014.57
1011.24 1010.80 1010.75 1009.90 1008.74 1007.10 1006.01 1004.93 1003.70 1004.29 1003.99 1003.48 1002.94 1002.25 1002.35 1002.30 1002.79 1003.47 1004.25 1005.00 1005.82 1006.80 1007.44 1008.25 1009.00 1009.37 1009.66 1009.90 1010.16 1010.53 1010.96 1011.40 1011.74 1012.00 1012.30 1012.79 1013.01 1013.19 1013.39 1013.77 1013.98 1014.09 1014.08 1014.09 1014.15 1014.21 1014.29 1014.33 1014.38
1011.21 1010.75 1010.68 1009.52 1007.95 1006.24 1004.76 1003.44 1003.06 1003.34 1003.49 1004.04 1003.51 1002.03 1002.95 1002.93 1002.73 1003.11 1003.89 1004.42 1005.10 1006.05 1006.39 1007.02 1007.86 1008.66 1009.30 1009.67 1009.95 1010.43 1010.79 1011.20 1011.47 1011.72 1011.99 1012.42 1012.77 1012.96 1013.15 1013.41 1013.68 1013.86 1013.86 1013.84 1013.91 1014.01 1014.14 1014.24 1014.27
1010.82 1010.38 1010.34 1009.24 1007.65 1005.39 1003.76 1003.15 1002.70 1002.30 1001.92 1002.05 1001.71 1001.88 1002.67 1002.78 1002.64 1002.81 1002.77 1003.72 1004.10 1005.04 1005.85 1006.32 1006.90 1007.71 1008.27 1009.00 1009.70 1010.17 1010.52 1010.86 1011.17 1011.39 1011.58 1011.99 1012.36 1012.59 1012.79 1013.05 1013.26 1013.40 1013.50 1013.60 1013.71 1013.82 1013.88 1013.96 1014.00
1010.43 1010.82 1009.93 1008.89 1007.35 1005.15 1003.19 1002.61 1002.15 1001.93 1001.06 1001.50 1001.29 1002.00 1002.90 1002.63 1002.28 1002.36 1002.28 1002.52 1003.54 1004.17 1005.16 1005.93 1006.42 1006.94 1007.57 1008.06 1008.80 1009.58 1010.02 1010.36 1010.72 1011.00 1011.15 1011.46 1011.76 1012.08 1012.33 1012.61 1012.81 1013.01 1013.17 1013.29 1013.41 1013.53 1013.63 1013.68 1013.71
1009.72 1010.60 1009.88 1008.82 1007.06 1004.96 1002.88 1002.62 1001.82 1001.50 1000.98 1001.22 1001.18 1001.91 1002.53 1002.55 1002.08 1001.87 1001.75 1001.69 1002.30 1003.74 1004.34 1005.04 1005.86 1006.28 1006.89 1007.55 1008.02 1008.70 1009.39 1009.88 1010.27 1010.59 1010.74 1010.96 1011.28 1011.53 1011.82 1012.03 1012.39 1012.64 1012.76 1012.93 1013.08 1013.22 1013.28 1013.28 1013.35
1009.02 1009.65 1009.18 1008.35 1006.69 1004.90 1003.36 1002.58 1001.42 1001.15 1000.82 1001.04 1001.27 1001.68 1002.09 1001.80 1001.62 1001.71 1002.01 1001.81 1001.90 1003.53 1004.01 1004.87 1005.46 1005.87 1006.20 1006.70 1007.11 1007.60 1008.46 1009.25 1009.85 1010.13 1010.28 1010.56 1010.93 1011.10 1011.29 1011.45 1011.87 1012.07 1012.20 1012.48 1012.67 1012.85 1012.92 1012.95 1013.00
1008.87 1007.72 1007.29 1006.99 1006.29 1005.00 1003.71 1003.04 1001.86 1001.55 1001.31 1001.64 1001.39 1000.86 1001.86 1001.84 1001.68 1001.64 1002.10 1002.29 1002.34 1002.48 1003.63 1004.11 1004.90 1005.24 1005.75 1006.09 1006.47 1007.01 1007.42 1008.34 1009.01 1009.50 1009.71 1010.06 1010.48 1010.66 1010.67 1010.79 1011.19 1011.40 1011.55 1011.97 1012.34 1012.29 1012.52 1012.67 1012.76
1007.63 1006.32 1006.56 1006.26 1005.68 1004.81 1003.92 1003.07 1002.17 1001.76 1001.31 1001.74 1001.93 1001.69 1001.17 1001.97 1001.78 1001.65 1001.64 1001.72 1002.04 1002.06 1002.86 1003.57 1003.90 1004.42 1004.82 1005.24 1005.99 1006.66 1006.87 1007.51 1008.29 1008.79 1009.14 1009.54 1009.93 1010.16 1010.30 1010.57 1010.74 1011.14 1011.31 1011.70 1011.91 1012.03 1012.28 1012.37 1012.45
1007.04 1006.02 1005.94 1005.62 1005.35 1004.66 1003.66 1003.16 1002.11 1001.60 1001.51 1001.41 1001.16 1001.15 1001.46 1001.64 1001.47 1001.33 1001.26 1001.34 1001.59 1001.63 1001.57 1002.28 1003.17 1004.02 1004.53 1004.63 1005.18 1005.67 1006.24 1006.73 1007.39 1008.06 1008.60 1009.12 1009.56 1009.84 1010.20 1010.38 1010.55 1010.90 1011.08 1011.45 1011.70 1011.77 1011.95 1012.15 1011.98
1005.96 1005.54 1005.37 1004.72 1004.59 1003.93 1003.50 1002.61 1001.78 1001.18 1000.97 1000.70 1000.67 1000.81 1001.01 1000.98 1000.95 1000.72 1000.65 1000.70 1000.73 1001.25 1001.11 1001.52 1002.24 1002.94 1003.40 1003.85 1004.38 1004.84 1005.38 1005.96 1006.58 1007.34 1007.92 1008.45 1009.04 1009.42 1009.75 1009.88 1010.04 1010.42 1010.62 1010.96 1011.50 1011.61 1011.64 1011.81 1011.75
1006.04 1005.46 1004.72 1004.25 1003.61 1003.15 1002.91 1002.10 1001.50 1001.01 1000.80 1000.44 1000.37 1000.44 1000.51 1000.42 1000.49 1000.23 1000.09 1000.13 1000.34 1000.26 1000.55 1000.87 1001.27 1001.91 1002.70 1003.15 1003.59 1003.94 1004.64 1005.30 1005.95 1006.59 1007.20 1007.83 1008.45 1009.09 1009.48 1009.79 1010.01 1010.18 1010.26 1010.52 1010.90 1011.25 1011.39 1011.55 1011.61
1006.15 1005.73 1004.71 1003.45 1003.07 1002.29 1002.66 1001.06 1000.28 1000.76 1000.45 1000.00 1000.00 999.93 999.84 999.65 999.70 999.72 999.52 999.59 999.50 999.47 999.64 1000.05 1000.55 1001.20 1002.05 1002.64 1003.03 1003.50 1003.98 1004.59 1005.30 1006.06 1006.56 1007.18 1007.86 1008.63 1009.12 1009.53 1009.80 1010.00 1009.99 1010.18 1010.47 1010.88 1011.04 1011.27 1011.38
1006.02 1005.79 1004.45 1002.71 1002.63 1001.72 1002.97 998.47 1000.55 1000.43 1000.11 999.75 999.56 999.43 999.19 998.96 998.80 998.90 998.87 998.99 998.72 998.88 999.09 999.43 999.64 1000.52 1001.24 1001.93 1002.59 1003.16 1003.66 1004.14 1004.79 1005.56 1006.23 1006.76 1007.42 1007.99 1008.70 1009.13 1009.45 1009.64 1009.90 1010.16 1010.53 1010.68 1010.91 1011.09 1011.20
1005.63 1004.75 1003.71 1002.17 1001.95 1002.13 1002.16 998.71 999.95 999.95 999.62 999.13 998.78 998.49 998.26 998.04 998.15 998.03 998.21 998.18 998.18 997.97 998.23 998.83 999.29 999.77 1000.71 1001.50 1002.28 1002.79 1003.31 1003.82 1004.43 1005.25 1005.99 1006.56 1007.08 1007.61 1008.29 1008.73 1009.13 1009.31 1009.81 1010.04 1010.27 1010.43 1010.62 1010.85 1010.92
1004.86 1004.16 1002.31 1001.11 1002.15 1001.58 1001.30 999.83 999.68 999.23 998.95 998.57 998.08 997.75 997.32 997.43 997.36 997.26 997.16 997.13 997.35 997.65 997.85 998.15 998.67 999.25 1000.23 1001.09 1002.00 1002.70 1003.22 1003.77 1004.27 1004.98 1005.77 1006.10 1006.69 1007.19 1007.88 1008.43 1008.95 1009.27 1009.58 1009.73 1009.94 1010.17 1010.29 1010.45 1010.57
1004.24 1003.16 1002.28 1001.60 1002.00 1001.78 1000.57 1000.08 999.42 998.23 997.83 997.49 997.40 997.25 997.27 996.99 996.82 996.21 996.58 996.78 996.82 997.02 997.46 997.91 998.59 999.39 1000.17 1001.07 1001.96 1002.80 1003.49 1004.03 1004.50 1005.11 1005.62 1006.01 1006.36 1007.00 1007.80 1008.27 1008.72 1008.99 1009.23 1009.42 1009.68 1009.95 1010.21 1010.26 1010.24
1004.52 1003.39 1001.84 1001.73 1001.39 1000.75 1000.15 999.72 998.76 997.77 997.28 997.06 996.93 996.74 996.72 996.47 996.21 996.11 996.15 996.34 996.67 996.96 997.27 997.82 998.46 998.99 999.76 1000.50 1001.38 1002.20 1003.24 1003.91 1004.29 1004.93 1005.52 1005.93 1006.45 1006.90 1007.40 1007.95 1008.39 1008.72 1009.05 1009.22 1009.40 1009.63 1009.90 1009.96 1010.08
1003.22 1002.82 1002.51 1002.21 1002.25 1000.79 1000.58 999.70 998.72 997.40 996.69 996.52 996.27 996.04 995.79 995.44 995.61 995.51 995.57 995.76 996.28 996.89 997.30 997.65 998.40 999.05 999.76 1000.52 1001.48 1002.45 1003.32 1003.97 1004.64 1005.20 1005.52 1005.79 1006.20 1006.80 1007.43 1007.91 1008.22 1008.51 1008.75 1009.02 1009.10 1009.20 1009.50 1009.86 1009.98
1002.47 1002.56 1002.49 1002.65 1002.43 1001.31 1001.19 999.62 998.23 997.55 996.73 996.23 995.89 995.39 995.23 994.71 994.51 994.61 994.94 995.48 996.10 996.95 997.29 997.62 998.66 999.31 1000.00 1000.60 1001.57 1002.43 1003.51 1004.35 1004.71 1005.10 1005.45 1005.90 1006.38 1006.91 1007.32 1007.75 1008.07 1008.31 1008.52 1008.66 1008.76 1008.93 1009.24 1009.62 1009.88
1001.40 1002.27 1002.43 1002.38 1002.07 1001.71 1000.77 1000.26 996.89 997.16 996.37 996.04 995.20 994.76 994.27 993.97 993.86 994.01 994.16 995.09 996.31 997.09 997.77 998.44 999.19 999.84 1000.34 1000.91 1001.66 1002.51 1003.44 1003.94 1004.65 1005.26 1005.80 1006.20 1006.59 1006.88 1007.28 1007.63 1007.88 1008.04 1008.17 1008.31 1008.50 1008.74 1008.91 1009.08 1009.40
1002.30 1002.27 1002.48 1002.40 1002.38 1001.74 999.64 999.70 995.99 996.72 996.13 995.00 994.64 994.14 993.73 993.48 993.07 993.56 994.57 995.56 996.77 997.47 998.23 999.09 999.71 1000.35 1000.78 1001.28 1001.97 1002.64 1003.41 1004.14 1004.96 1005.49 1006.11 1006.63 1006.90 1007.10 1007.28 1007.50 1007.63 1007.84 1007.98 1008.14 1008.29 1008.34 1008.48 1008.64 1008.80
1002.05 1002.40 1002.79 1002.46 1001.97 999.21 999.51 998.66 996.03 995.25 994.49 993.88 993.89 993.70 993.89 993.61 994.05 994.82 995.38 996.36 997.22 998.09 998.81 999.52 1000.14 1000.94 1001.21 1001.68 1002.38 1002.99 1003.60 1004.25 1004.90 1005.43 1005.98 1006.45 1006.96 1007.31 1007.34 1007.33 1007.51 1007.72 1007.84 1007.93 1007.98 1008.08 1008.21 1008.23 1008.44
1001.58 1001.91 1001.93 1001.36 1000.58 999.36 999.41 997.36 994.86 993.13 993.14 992.86 992.87 993.27 993.79 994.29 994.86 995.70 996.44 997.27 997.86 998.59 999.23 999.98 1000.62 1001.34 1001.71 1002.19 1002.87 1003.50 1003.92 1004.51 1004.99 1005.39 1005.89 1006.43 1006.94 1007.12 1007.10 1007.26 1007.35 1007.52 1007.60 1007.67 1007.67 1007.83 1007.95 1007.87 1008.04
1001.51 1001.01 1000.37 1001.34 1000.83 999.86 998.00 996.09 994.67 992.87 992.53 992.26 992.29 993.23 993.91 994.72 995.44 996.05 996.89 997.73 998.43 999.19 999.80 1000.30 1000.98 1001.60 1002.08 1002.71 1003.35 1003.89 1004.23 1004.67 1005.25 1005.60 1005.82 1006.30 1006.63 1006.88 1007.05 1007.15 1007.22 1007.37 1007.42 1007.46 1007.56 1007.67 1007.64 1007.56 1007.71
1000.72 1000.50 1000.88 1000.75 1000.78 999.64 997.39 995.60 993.79 991.63 991.47 991.62 991.77 993.05 994.04 994.91 995.71 996.43 997.33 998.16 998.91 999.57 1000.10 1000.67 1001.24 1001.86 1002.43 1003.10 1003.68 1004.23 1004.72 1004.95 1005.34 1005.77 1006.14 1006.30 1006.62 1006.77 1007.01 1007.00 1007.05 1007.12 1007.11 1007.13 1007.37 1007.44 1007.35 1007.46 1007.50
1001.05 1000.43 1000.61 1000.20 999.90 999.00 997.88 994.87 991.64 991.17 990.66 991.20 991.50 992.53 993.80 994.75 995.65 996.40 997.50 998.40 999.18 999.90 1000.47 1001.06 1001.61 1002.21 1002.79 1003.37 1003.88 1004.32 1004.69 1005.04 1005.43 1005.78 1006.02 1006.30 1006.59 1006.70 1006.84 1006.78 1006.77 1006.88 1006.88 1006.99 1007.25 1007.24 1007.25 1007.43 1007.47
1001.91 1001.15 1000.66 1000.44 999.14 998.26 996.94 994.14 991.31 990.39 990.42 990.63 991.80 992.66 993.71 994.58 995.57 996.57 997.54 998.40 999.39 1000.08 1000.69 1001.35 1001.89 1002.46 1002.96 1003.49 1003.93 1004.44 1004.86 1005.15 1005.61 1005.82 1005.99 1006.33 1006.55 1006.62 1006.68 1006.62 1006.62 1006.62 1007.01 1007.24 1007.17 1007.36 1007.19 1007.23 1007.35
Thickness
5795 5792 5795 5790 5759 5766 5760 5790 5811 5817 5817 5839 5853 5847 5835 5831 5817 5783 5844 5848 5842 5829 5820 5815 5809 5803 5799 5791 5783 5777 5772 5767 5762 5756 5752 5749 5744 5740 5734 5729 5725 5721 5719 5721 5718 5716 5714 5716 5718
5792 5790 5786 5777 5750 5744 5756 5806 5792 5809 5824 5848 5850 5846 5830 5805 5837 5835 5835 5846 5844 5829 5819 5812 5806 5798 5793 5789 5781 5774 5768 5763 5757 5752 5749 5745 5740 5736 5732 5726 5722 5718 5715 5714 5713 5711 5710 5709 5710
5784 5790 5767 5759 5755 5751 5764 5807 5808 5822 5821 5822 5819 5847 5838 5821 5833 5838 5847 5841 5835 5821 5811 5805 5799 5792 5786 5783 5776 5769 5764 5759 5755 5750 5744 5739 5735 5732 5728 5722 5719 5715 5711 5708 5707 5706 5706 5705 5705
5776 5777 5769 5750 5755 5783 5790 5806 5816 5804 5810 5820 5821 5816 5836 5845 5837 5842 5844 5838 5833 5824 5815 5807 5797 5789 5782 5776 5771 5766 5760 5755 5750 5745 5740 5733 5730 5726 5723 5716 5712 5709 5707 5705 5702 5700 5700 5701 5700
5770 5763 5738 5746 5763 5792 5811 5824 5819 5806 5808 5804 5801 5806 5810 5834 5845 5844 5842 5838 5830 5826 5824 5817 5806 5792 5783 5776 5770 5763 5758 5753 5747 5742 5737 5731 5725 5720 5717 5711 5705 5701 5700 5699 5696 5694 5693 5693 5694
5748 5757 5729 5732 5761 5797 5815 5823 5823 5813 5823 5821 5826 5820 5808 5836 5840 5838 5845 5835 5833 5825 5820 5816 5811 5799 5790 5780 5770 5763 5758 5751 5745 5740 5736 5730 5723 5719 5713 5707 5701 5699 5697 5694 5691 5689 5687 5687 5689
5742 5727 5727 5741 5757 5782 5807 5820 5814 5818 5824 5821 5837 5812 5812 5825 5835 5838 5836 5838 5828 5825 5818 5809 5808 5805 5792 5785 5776 5766 5759 5752 5745 5740 5736 5730 5724 5719 5713 5705 5701 5698 5694 5691 5689 5686 5684 5684 5684
5745 5727 5724 5734 5751 5769 5809 5806 5819 5818 5816 5842 5836 5803 5805 5820 5837 5838 5835 5834 5834 5821 5817 5811 5803 5807 5796 5785 5779 5770 5760 5752 5745 5739 5734 5730 5724 5718 5713 5707 5701 5696 5692 5689 5686 5683 5682 5682 5682
5753 5706 5708 5731 5750 5773 5800 5793 5817 5830 5818 5823 5827 5819 5822 5840 5842 5835 5828 5826 5828 5812 5809 5807 5801 5795 5799 5788 5780 5775 5764 5754 5745 5738 5734 5729 5723 5718 5714 5709 5702 5696 5693 5688 5684 5682 5680 5679 5678
5725 5717 5730 5758 5760 5765 5785 5787 5803 5802 5797 5801 5810 5827 5826 5829 5825 5819 5816 5811 5815 5820 5808 5807 5800 5795 5798 5791 5782 5774 5768 5757 5747 5739 5735 5729 5722 5718 5714 5710 5703 5699 5695 5688 5683 5681 5677 5674 5674
5730 5725 5745 5752 5761 5769 5772 5782 5798 5792 5787 5797 5789 5803 5820 5814 5815 5812 5815 5817 5814 5822 5813 5808 5803 5798 5796 5793 5783 5773 5768 5759 5748 5741 5736 5729 5722 5717 5712 5707 5702 5697 5692 5687 5681 5678 5672 5670 5669
5713 5739 5742 5750 5756 5759 5761 5777 5781 5788 5786 5803 5809 5814 5810 5805 5808 5811 5812 5814 5814 5816 5821 5814 5804 5794 5791 5792 5785 5777 5768 5761 5752 5742 5735 5728 5722 5716 5709 5704 5699 5694 5689 5683 5679 5675 5670 5665 5665
5720 5735 5740 5750 5751 5758 5765 5763 5771 5780 5799 5809 5813 5813 5805 5806 5807 5813 5815 5813 5816 5811 5811 5812 5808 5801 5797 5791 5786 5779 5771 5762 5753 5743 5736 5729 5722 5714 5708 5703 5696 5691 5687 5681 5674 5671 5669 5665 5662
5721 5724 5732 5740 5745 5754 5751 5758 5769 5781 5797 5798 5802 5801 5801 5802 5804 5807 5810 5810 5808 5810 5806 5809 5807 5804 5798 5791 5786 5781 5773 5764 5754 5746 5737 5729 5721 5712 5705 5698 5693 5686 5682 5676 5669 5664 5663 5659 5658
5706 5695 5713 5731 5740 5742 5752 5745 5762 5780 5786 5788 5787 5792 5796 5801 5803 5803 5806 5803 5807 5806 5809 5808 5805 5801 5793 5787 5782 5776 5771 5765 5754 5745 5738 5730 5722 5712 5703 5694 5687 5682 5677 5673 5667 5662 5659 5655 5653
5686 5686 5680 5729 5735 5749 5738 5740 5759 5775 5778 5773 5781 5786 5792 5795 5803 5802 5803 5802 5806 5804 5802 5807 5807 5797 5791 5785 5775 5770 5765 5760 5752 5743 5734 5727 5719 5710 5700 5691 5683 5677 5671 5666 5661 5657 5653 5650 5647
5674 5667 5685 5715 5740 5733 5725 5736 5753 5771 5769 5767 5777 5784 5790 5797 5796 5800 5802 5804 5802 5804 5803 5800 5800 5794 5786 5779 5770 5763 5758 5751 5744 5736 5727 5720 5713 5705 5697 5688 5680 5672 5665 5659 5655 5651 5647 5643 5641
5667 5677 5702 5708 5719 5725 5721 5726 5746 5763 5765 5765 5775 5780 5788 5786 5789 5797 5803 5806 5803 5802 5800 5797 5793 5790 5783 5777 5767 5757 5751 5746 5740 5732 5722 5717 5708 5701 5693 5683 5675 5667 5659 5653 5648 5643 5640 5637 5635
5682 5687 5690 5703 5714 5711 5717 5720 5734 5760 5763 5765 5770 5772 5773 5777 5788 5802 5801 5799 5797 5797 5793 5790 5783 5779 5776 5768 5758 5749 5739 5737 5732 5724 5720 5714 5706 5696 5686 5677 5666 5659 5652 5647 5640 5635 5629 5627 5626
5660 5667 5682 5697 5711 5714 5718 5710 5734 5751 5761 5764 5764 5768 5770 5778 5786 5791 5792 5790 5789 5788 5786 5782 5778 5776 5771 5767 5758 5750 5738 5733 5729 5721 5712 5706 5699 5691 5682 5671 5662 5655 5648 5642 5635 5629 5623 5621 5620
5660 5661 5672 5673 5688 5710 5704 5694 5718 5750 5763 5766 5772 5770 5774 5784 5778 5782 5785 5783 5781 5776 5776 5776 5774 5769 5765 5760 5750 5741 5734 5725 5717 5711 5707 5702 5696 5687 5676 5666 5658 5650 5645 5638 5633 5627 5620 5611 5611
5644 5673 5674 5671 5669 5660 5697 5662 5711 5734 5744 5758 5763 5775 5774 5782 5786 5785 5784 5780 5774 5771 5772 5771 5765 5761 5757 5752 5742 5734 5722 5712 5710 5707 5702 5695 5690 5679 5672 5663 5656 5649 5643 5637 5632 5625 5616 5609 5605
5655 5666 5666 5668 5667 5668 5680 5665 5719 5728 5732 5740 5763 5767 5773 5778 5779 5781 5782 5777 5770 5767 5764 5759 5755 5752 5748 5744 5737 5727 5717 5713 5705 5699 5692 5685 5678 5674 5667 5659 5652 5647 5643 5638 5631 5623 5616 5609 5606
5651 5649 5653 5660 5655 5634 5685 5677 5712 5717 5728 5749 5759 5768 5775 5779 5788 5781 5774 5770 5762 5761 5756 5751 5747 5742 5740 5736 5730 5721 5713 5705 5696 5689 5681 5675 5669 5663 5659 5655 5651 5647 5642 5637 5631 5626 5620 5614 5610
5629 5626 5606 5612 5620 5653 5692 5677 5707 5736 5745 5757 5757 5762 5765 5769 5768 5765 5762 5757 5754 5750 5747 5744 5739 5733 5731 5727 5721 5714 5707 5699 5691 5684 5677 5670 5663 5658 5656 5653 5649 5645 5642 5638 5634 5629 5624 5621 5617
5615 5619 5606 5601 5625 5657 5685 5665 5712 5757 5761 5765 5771 5770 5761 5763 5763 5756 5752 5750 5748 5744 5741 5737 5730 5725 5722 5719 5711 5704 5699 5693 5687 5682 5675 5668 5660 5656 5655 5652 5650 5647 5644 5640 5637 5632 5627 5626 5623
5611 5606 5657 5629 5645 5648 5673 5701 5729 5753 5757 5762 5767 5760 5755 5756 5755 5751 5747 5744 5740 5736 5732 5729 5724 5719 5714 5709 5701 5695 5691 5686 5679 5675 5670 5664 5658 5655 5653 5651 5649 5646 5644 5642 5638 5633 5629 5629 5626
5607 5640 5611 5625 5608 5618 5668 5688 5702 5742 5753 5760 5761 5754 5754 5752 5751 5746 5741 5737 5734 5730 5727 5723 5718 5712 5707 5700 5694 5688 5683 5680 5675 5670 5664 5661 5656 5655 5651 5651 5648 5646 5645 5643 5640 5636 5634 5630 5629
5595 5607 5613 5630 5634 5631 5640 5678 5747 5748 5757 5758 5760 5763 5756 5751 5748 5745 5738 5733 5729 5727 5721 5716 5711 5705 5699 5694 5689 5684 5680 5676 5671 5666 5662 5659 5655 5653 5650 5651 5650 5648 5646 5644 5639 5638 5636 5631 5631
5581 5591 5613 5603 5628 5647 5659 5682 5745 5764 5765 5767 5757 5758 5755 5753 5748 5742 5736 5732 5725 5720 5716 5710 5704 5699 5695 5690 5686 5680 5675 5671 5665 5663 5661 5657 5653 5653 5651 5652 5652 5650 5646 5642 5640 5636 5635 5635 5632